Tracking 19149 objects as of 22-Apr-2018
HD Live streaming from Space Station
objects crossing your sky now

COSMOS 2230

Track COSMOS 2230 now!
10-day predictions
COSMOS 2230 is classified as:


NORAD ID: 22307
Int'l Code: 1993-001A
Perigee: 975.7 km
Apogee: 1,012.2 km
Inclination: 82.9 °
Period: 104.8 minutes
Semi major axis: 7364 km
RCS: 1.5931 m2 (large)
Launch date: January 12, 1993
Source: Commonwealth of Independent States (former USSR) (CIS)
Launch site: PLESETSK MISSILE AND SPACE COMPLEX (PKMTR)
aabbcc
Your satellite tracking list
Your tracking list is empty




NASA's NSSDC Master Catalog

Two Line Element Set (TLE):
1 22307U 93001A   18112.13283773  .00000052  00000-0  39828-4 0  9995
2 22307  82.9404 330.1146 0024734 170.8733 307.0517 13.73562346258525
Source of the keplerian elements: AFSPC